Location: Pittsburgh
(40.4410°N, 79.9960°W)
Time: 06:07:36
(UTC-04:00)

ARIANE 6 FM1 Upper Stage - Pass Details

Date: 14 March 2026
Orbit: 525 x 604 km, 62.0° (Epoch: 20 April)

Event Time Altitude Azimuth Distance (km) Brightness Sun altitude
Exits shadow 05:10:47 35° 28° (NNE) 892 4.0 -27.4°
Drops below altitude 10° 05:13:11 10° 34° (NNE) 1,796 5.9 -26.9°
Sets 05:15:22 0° 36° (NE) 2,681 7.0 -26.6°
